Terminal Aerodrome Forecast
Issued by NWS Caribou, ME

Home | Current Version | Previous Version | Text Only | Print | Product List | Glossary On
Versions: 1 2 3 4 5 6 7 8 9 10 11 12 13 14 15 16 17 18 19
000
FTUS41 KCAR 231100
TAFCAR
TAF
KCAR 231126Z 2312/2412 04011KT P6SM SCT025 OVC070
     FM231500 04012G22KT P6SM -RA OVC025
     FM232200 04015G25KT P6SM -RA OVC015
     FM240300 04015G22KT 4SM RA OVC015
     FM240900 02013G22KT 2SM +RA OVC007=

USA.gov is the U.S. government's official web portal to all federal, state and local government web resources and services.